Kindakun Rocks, British Columbia

1:33 AM PDT on May 27, 2017 (GMT -0700)
Kindakun Rocks

Weather History for CWQS - December, 2012

Change the Weather History Date:

Saturday, December 22, 2012

  Actual Average (CYZP) Record (CYZP)
Temperature  
Mean Temperature 39 °F -  
Max Temperature 42 °F 41 °F 50 °F (2002)
Min Temperature 36 °F 34 °F 23 °F (1996)
Degree Days  
Heating Degree Days 26    
Moisture  
Dew Point 33 °F    
Average Humidity 73    
Maximum Humidity 80    
Minimum Humidity 60    
Precipitation  
Precipitation 0.03 in - - ()
Sea Level Pressure  
Sea Level Pressure 29.48 in    
Wind  
Wind Speed 10 mph ()    
Max Wind Speed 17 mph    
Max Gust Speed 24 mph    
Averages and records for this station are not official NWS values.
T = Trace of Precipitation, MM = Missing Value Source: Averaged Metar Reports

Daily Weather History Graph

Daily Weather History Graph

Search for Another Location

Airport or City:

Trip Planner

Search our weather history database for the weather conditions in past years. The results will help you decide how hot, cold, wet, or windy it might be!

Date:

Astronomy

Dec. 22, 2012 Rise Set
Actual Time 9:04 AM PST 4:35 PM PST
Civil Twilight 8:22 AM PST 5:18 PM PST
Nautical Twilight 7:36 AM PST 6:03 PM PST
Astronomical Twilight 6:54 AM PST 6:46 PM PST
Moon 1:20 PM PST (12/22) 3:30 AM PST (12/22)
Length of Visible Light 8h 56m
Length of Day
7h 30m
Waxing Gibbous, 74% of the Moon is Illuminated
Dec 22
Waxing Gibbous
Dec 28
Full
Jan 4
Last Quarter
Jan 11
New
Jan 18
First Quarter

Hourly Weather History & Observations

Time (PST) Temp. Windchill Dew Point Humidity Pressure Visibility Wind Dir Wind Speed Gust Speed Precip Events Conditions
12:00 AM 38.5 °F 29.9 °F 31.8 °F 77% 29.50 in - ESE 15.0 mph 24.2 mph 0.02 in   Unknown
1:00 AM 40 °F - 32 °F 65% 29.49 in - ESE 15.0 mph - -  
1:00 AM 39.9 °F 31.8 °F 31.8 °F 73% 29.49 in - ESE 15.0 mph 21.9 mph N/A   Unknown
2:00 AM 40.3 °F 33.0 °F 31.5 °F 71% 29.48 in - ESE 12.7 mph 20.7 mph N/A   Unknown
3:00 AM 39.2 °F 31.6 °F 33.3 °F 79% 29.49 in - ESE 12.7 mph 19.6 mph 0.01 in   Unknown
4:00 AM 40 °F - 33 °F 69% 29.49 in - ESE 9.2 mph - -  
4:00 AM 40.3 °F 34.4 °F 33.3 °F 76% 29.49 in - ESE 9.2 mph 17.3 mph 0.01 in   Unknown
5:00 AM 39.9 °F 33.9 °F 34.3 °F 80% 29.48 in - ESE 9.2 mph - N/A   Unknown
6:00 AM 39.6 °F 35.4 °F 34.0 °F 80% 29.48 in - ESE 5.8 mph - N/A   Unknown
7:00 AM 40 °F - 34 °F 70% 29.47 in - ESE 9.2 mph - -  
7:00 AM 39.7 °F 33.7 °F 33.6 °F 79% 29.47 in - ESE 9.2 mph - N/A   Unknown
8:00 AM 40.1 °F 34.1 °F 34.3 °F 80% 29.47 in - ESE 9.2 mph - N/A   Unknown
9:00 AM 40.6 °F 35.4 °F 33.4 °F 75% 29.47 in - East 8.1 mph - N/A   Unknown
10:00 AM 41 °F - 34 °F 69% 29.48 in - ESE 10.4 mph - -  
10:00 AM 40.8 °F 34.5 °F 34.3 °F 78% 29.48 in - ESE 10.4 mph 19.6 mph N/A   Unknown
11:00 AM 41.0 °F 35.2 °F 34.7 °F 78% 29.48 in - ESE 9.2 mph - N/A   Unknown
12:00 PM 41.7 °F 36.7 °F 34.9 °F 77% 29.48 in - ESE 8.1 mph - N/A   Unknown
1:00 PM 41 °F - 35 °F 72% 29.47 in - SE 10.4 mph - -  
1:00 PM 41.4 °F 35.2 °F 35.1 °F 78% 29.47 in - SE 10.4 mph - N/A   Unknown
2:00 PM 40.8 °F 36.2 °F 33.8 °F 76% 29.47 in - SSE 6.9 mph - N/A   Unknown
3:00 PM 40.5 °F 38.4 °F 33.8 °F 77% 29.46 in - ENE 3.5 mph - N/A   Unknown
4:00 PM 41 °F - 33 °F 64% 29.46 in - East 4.6 mph - -  
4:00 PM 40.6 °F 37.5 °F 33.1 °F 74% 29.46 in - East 4.6 mph - N/A   Unknown
5:00 PM 39.6 °F 30.6 °F 31.3 °F 72% 29.46 in - ESE 17.3 mph 24.2 mph N/A   Unknown
6:00 PM 39.0 °F 30.3 °F 30.2 °F 71% 29.46 in - ESE 16.1 mph 23.0 mph N/A   Unknown
7:00 PM 39 °F - 30 °F 60% 29.47 in - ESE 16.1 mph - -  
7:00 PM 39.2 °F 30.5 °F 30.0 °F 70% 29.47 in - ESE 16.1 mph 23.0 mph N/A   Unknown
8:00 PM 38.7 °F 29.5 °F 30.6 °F 73% 29.47 in - ESE 17.3 mph 24.2 mph N/A   Unknown
9:00 PM 38.1 °F 29.5 °F 29.5 °F 71% 29.48 in - ESE 15.0 mph 21.9 mph N/A   Unknown
10:00 PM 38 °F - 30 °F 64% 29.49 in - ESE 9.2 mph - -  
10:00 PM 37.9 °F 31.5 °F 30.2 °F 74% 29.49 in - ESE 9.2 mph - N/A   Unknown
11:00 PM 37.8 °F 34.2 °F 29.7 °F 73% 29.51 in - East 4.6 mph - N/A   Unknown